Flag for United Kingdom Weather past 2 weeks in Whitstable, England, United Kingdom

Now
54 °F

Partly sunny.


Feels Like: 53 °F
Forecast: 48 / 60 °F
Wind: 5 mph from Southwest

Location: Manston - South East


UV Index: 0 (Low)

Visibility: N/A


Pressure: 29.65 "Hg

Humidity: 88%

Dew point: 50 °F

Location of WhitstableLocation

Historic Weather in Whitstable

°F

Whitstable temperature yesterday

Maximum temperature yesterday: 52 °F (at 11:20 AM)
Minimum temperature yesterday: 46 °F (at 8:20 AM)
Average temperature yesterday: 50 °F

Past Weeks' High & Low Weather Summary

 TemperatureHumidityPressure
High64 °F (Apr 17, 1:20 PM)100% (Apr 6, 8:20 AM)30.45 "Hg (Apr 6, 8:20 AM)
Low41 °F (Apr 9, 5:50 AM)54% (Apr 8, 2:50 PM)29.62 "Hg (Apr 20, 3:20 PM)
Average53 °F77%30.09 "Hg
* Reported Apr 5 5:20 PM — Apr 20 5:50 PM, Whitstable, Weather by CustomWeather, © 2014

Note: Actual official high and low records may vary slightly from our data, if they occured in-between our weather recording intervals... More about our weather records

Advertising

Historic Weather Conditions — Data for Previous 24 hours

 ConditionsComfort  
Time TempWeatherWind HumidityBarometerVisibility
5:50 PM
Apr 20
54 °FPartly sunny.5 mph88%29.65 "HgN/A
5:20 PM54 °FScattered clouds.6 mph88%29.62 "Hg4 mi
4:50 PM54 °FFog.6 mph94%29.62 "Hg2 mi
4:20 PM54 °FFog.6 mph100%29.62 "Hg2 mi
3:50 PM54 °FFog.12 mph94%29.62 "Hg2 mi
3:20 PM54 °FRain. Fog.15 mph94%29.62 "Hg2 mi
2:50 PM54 °FScattered clouds.16 mph94%29.65 "Hg2 mi
2:20 PM54 °FHaze.17 mph94%29.65 "Hg2 mi
1:50 PM52 °FFog.15 mph94%29.65 "Hg2 mi
1:20 PM52 °FDrizzle. Fog.15 mph94%29.65 "Hg2 mi
12:50 PM52 °FDrizzle. Fog.15 mph94%29.65 "Hg2 mi
12:20 PM54 °FLight rain. Partly sunny.18 mph88%29.65 "Hg2 mi
11:50 AM54 °FLight rain. Fog.20 mph94%29.68 "Hg2 mi
11:20 AM54 °FRain. Fog.17 mph94%29.68 "Hg2 mi
10:50 AM54 °FSprinkles. Fog.21 mph94%29.71 "Hg2 mi
10:20 AM54 °FSprinkles. Fog.20 mph94%29.71 "Hg2 mi
9:50 AM52 °FSprinkles. Fog.18 mph94%29.71 "Hg2 mi
9:20 AM54 °FSprinkles. Fog.20 mph88%29.71 "Hg2 mi
8:50 AM54 °FFog.17 mph88%29.71 "Hg2 mi
8:20 AM54 °FFog.18 mph88%29.71 "Hg3 mi
7:50 AM52 °FFog.16 mph94%29.74 "Hg3 mi
Weather by CustomWeather, © 2014

See weather overview